Regional Weather Roundup
Issued by NWS

Home | Current Version | Previous Version | Graphics & Text | Print | Product List | Glossary On
Versions: 1 2 3 4 5 6 7 8 9 10 11 12 13 14 15 16 17 18 19 20 21 22 23 24 25 26 27 28 29 30 31 32 33 34 35 36 37 38 39 40 41 42 43 44 45 46 47 48 49 50
495
ASUS43 KMKX 290200
RWRWI

WISCONSIN REGIONAL WEATHER ROUNDUP
NATIONAL WEATHER SERVICE MILWAUKEE/SULLIVAN WI
900 PM CDT THU JUL 28 2016

NOTE: "FAIR" INDICATES FEW OR NO CLOUDS BELOW 12,000 FEET WITH NO
SIGNIFICANT WEATHER AND/OR OBSTRUCTIONS TO VISIBILITY.

WIZ001-002-006>008-014>016-023>028-290300-
NORTHWEST WISCONSIN

CITY           SKY/WX    TMP DP  RH WIND       PRES   REMARKS
SUPERIOR ARPT  CLEAR     61  58  92 E5        30.09R
ASHLAND        CLOUDY    59  53  80 N5        30.09S
HAYWARD        PTCLDY    62  53  72 N5        30.08R
SIREN          NOT AVBL
CUMBERLAND     CLOUDY    64  54  68 N8        30.06R
RICE LAKE      CLOUDY    67  56  67 N12       30.06S
CHETEK         CLOUDY    70  61  73 N8        30.04S
LADYSMITH      CLOUDY    69  59  72 N8        30.06R
EAU CLAIRE     CLOUDY    66  61  84 CALM      30.02S
MENOMONIE      CLOUDY    66  62  86 SE3       30.04R
NEW RICHMOND   PTCLDY    67  59  74 N5        30.04S
OSCEOLA        CLOUDY    68  56  66 N6        30.07R
$$

WIZ003>005-009-010-017-018-290300-
NORTH CENTRAL WISCONSIN

CITY           SKY/WX    TMP DP  RH WIND       PRES   REMARKS
MANITOWISH WTR PTCLDY    60  55  81 N5        30.08R
ARBOR VITAE    CLEAR     64  54  71 NE3       30.07R
WOODRUFF       CLEAR     64  54  71 NE3       30.07R
RHINELANDER    CLEAR     63  53  70 NE5       30.07R
EAGLE RIVER    PTCLDY    61  49  65 NE7       30.07S
LAND O LAKES   PTCLDY    62  52  70 NE3       30.10R
PHILLIPS       CLEAR     64  56  77 NE9       30.06R
TOMAHAWK       CLOUDY    65  54  68 NE6       30.06R
MEDFORD        CLOUDY    65  65 100 CALM      30.03S
MERRILL        CLOUDY    66  64  91 NE5       30.04S
$$

WIZ029-030-035-036-043>047-290300-
CENTRAL WISCONSIN

CITY           SKY/WX    TMP DP  RH WIND       PRES   REMARKS
WAUSAU         CLOUDY    67  65  93 CALM      30.01R
MOSINEE        CLOUDY    66  63  88 NE5       30.04R
MARSHFIELD     CLOUDY    65  60  84 NE6       30.01S
STEVENS POINT  RAIN      62  61  96 CALM      30.02R
WAUPACA        CLOUDY    68  63  83 CALM      30.00S
WAUTOMA        CLOUDY    66  62  87 NE5         N/A
WISC RAPIDS    CLOUDY    66  57  72 E8        30.02R
CAMP DOUGLAS   NOT AVBL
$$

WIZ011>013-019>022-031-037>040-048>050-290300-
NORTHEAST WISCONSIN

CITY           SKY/WX    TMP DP  RH WIND       PRES   REMARKS
ANTIGO         CLOUDY    65  60  84 CALM      30.05R
SHAWANO        CLOUDY    70  64  81 NE7       30.01R
OCONTO         CLOUDY    67  67 100 NE3       30.00R
STURGEON BAY   CLOUDY    68  59  73 N10       30.01R
GREEN BAY      CLOUDY    66  65  96 NE7       29.99R
MANITOWOC      NOT AVBL
APPLETON       MOCLDY    68  55  64 NE10      29.97S
CLINTONVILLE   CLOUDY    64  61  88 CALM      30.01R
OSHKOSH        CLOUDY    69  57  65 NE8       29.98R
$$

WIZ032>034-041-042-053>061-290300-
SOUTHWEST WISCONSIN

CITY           SKY/WX    TMP DP  RH WIND       PRES   REMARKS
LA CROSSE      CLOUDY    65  63  93 N7        29.98R
SPARTA         CLOUDY    62  61  97 N5        29.99S
VIROQUA        CLOUDY    65  65 100 N7        29.98R
BOSCOBEL       CLOUDY    72  67  84 VRB5      29.94R
PRAIRIE DU CHI CLOUDY    68  66  92 NW5       29.94R
PLATTEVILLE    PTCLDY    69  69 100 NE3       29.94R
$$

WIZ056-057-062-063-064-067-068-290300-
SOUTH CENTRAL WISCONSIN

CITY           SKY/WX    TMP DP  RH WIND       PRES   REMARKS
REEDSBURG      CLOUDY    68  65  89 NE9       29.96S
BARABOO/DELLS  CLOUDY    68  62  82 NE9G17    29.97R
LONE ROCK      NOT AVBL
MINERAL POINT  CLOUDY    70  70 100 NE3       29.94R
MADISON        CLOUDY    70  63  78 E13       29.95R
MIDDLETON      CLOUDY    71  65  82 NE12      29.95R
WATERTOWN      CLOUDY    68  65  89 NE6       29.95R
MONROE         CLOUDY    70  64  83 NE8       29.93R
JANESVILLE     MOCLDY    70  66  88 E9        29.93R
$$

WIZ051-052-058>065-066-070>072-290300-
SOUTHEAST WISCONSIN

CITY           SKY/WX    TMP DP  RH WIND       PRES   REMARKS
MILWAUKEE      CLOUDY    67  63  87 N9        29.94R
WAUKESHA       MOCLDY    66  61  82 NE9       29.96F
MILWAUKEE/TIMM MOCLDY    66  61  82 NE9       29.96S
RACINE         MOCLDY    67  64  90 N7        29.95R
BURLINGTON     PTCLDY    66  64  93 CALM      29.94S
KENOSHA        PTCLDY    68  65  90 NE6       29.94R
FOND DU LAC    CLOUDY    69  57  65 NE9       29.98R
SHEBOYGAN      CLOUDY    66  57  72 N10       29.97R
WEST BEND      CLOUDY    64  57  77 NE8       29.96S
JUNEAU         CLOUDY    68  61  78 N9        29.97R
$$

LSZ147-162-290300-
LAKE SUPERIOR

STATION/POSITION TIME  TEMP    WIND        PRES    WAVE
                       AIR SEA DIR/SP/G            HT/PER
                 (UTC) (F)     (DEG/KT/KT) (MB)    (FT/S)
W MID LAKE BUOY  0050   63 61   60/  2/  2 1018.4R   2/ 4
DEVILS ISLAND    0100   64      90/  8/  8 1018.9R
PORT WING        0100   63      20/  2/  3 1019.0
SAXON HARBOR     0100   69     160/  2/  5 1017.9S
$$

LMZ867-665-643>646-290300-
LAKE MICHIGAN

STATION/POSITION TIME  TEMP    WIND        PRES    WAVE
                       AIR SEA DIR/SP/G            HT/PER
                 (UTC) (F)     (DEG/KT/KT) (MB)    (FT/S)
CHAMBERS ISLAND  0100   71     360/ 20/ 23 1015.6S
N MID LAKE BUOY  0050   71 70  360/ 19/ 23 1014.7R   1/ 3
NORTHPORT PIER   0100   71      10/ 15/ 19 1015.9S
SISTER BAY       0106   70      20/ 11/ 15   N/A
ALGOMA LAKESHORE 0013           60/  8/ 10   N/A
KEWAUNEE LAKESHO 0100   66                   N/A
SHEBOYGAN LAKESH 0100   62     350/ 15/ 16 1014.8R
PORT WASHINGTON  0140   68     360/  4/ 10 1014.9S
ATWATER BUOY     0100   63 63  350/ 14/ 16 1015.6
MILWAUKEE LAKESH 0110   65     360/ 14/ 17   N/A
S MID LAKE BUOY  0050   75 76   80/ 14/ 16 1011.9R   2/ 6
KENOSHA   LAKESH 0100   69      10/ 13/ 16 1013.2R
$$

TC  - TEMPERATURE IN CELSIUS
VSB - VISIBILITY IN STATUTE MILES
WCI - WIND CHILL INDEX
HX  - HEAT INDEX





USA.gov is the U.S. government's official web portal to all federal, state and local government web resources and services.